Погода в Дальней Закоре

Россия / Иркутская область     54°39′25″N   104°44′10″E
темп.,
°C
ветер,
м/с
пор.,
м/с
влажн.,
%
обл.,
%
осадки,
мм/ч
давл.,
гПа
погр.,
м
19 мая, ср
ср1923:00+3з227289 0.0 100312
02:00+1зсз1182100 0.0 100410
05:000зюз229090 0.0 100515
08:00+6з1359100 0.0 1004470
11:00+11сз352488 0.0 10032276
14:00+13зсз462069 0.0 10022721
17:00+13зсз3421100 0.0 10012678
20:00+9ссз1134100 0.0 100111
20 мая, чт
чт2023:00+4ссв2143100 0.0 100313
02:00+4св2342100 0.0 100280
05:00+3св1253100 0.3 100244
08:00+4св0251100 0.6 1003288
11:00+9всв3436100 0.1 10031535
14:00+13всв232798 0.1 10022299
17:00+12св4326100 0.0 10012370
20:00+9ссв4833100 0.0 1001557
21 мая, пт
пт2123:00+6св3939100 0.0 1004408
02:00+4ссв2447100 0.0 1004135
05:00+3с2559100 0.1 1003170
08:00+4ссв2446100 0.3 1004498
11:00+6с3443100 0.2 10041168
14:00+6с4745100 0.4 10051481
17:00+8с4935100 0.2 10052191
20:00+7ссз4936100 0.3 1007850
22 мая, сб
сб2223:00+6ссз31037100 0.0 1009585
02:00+2зсз2348100 0.0 101159
05:00+1зсз2353100 0.0 101264
08:00+6сз41236100 0.0 10121537
11:00+9ссз61028100 0.0 10122639
14:00+10ссз6925100 0.0 10123001
17:00+11ссз6926100 0.0 10132810
20:00+9сз483896 0.0 10151148
23 мая, вс
вс2323:00+3зсз357065 0.3 101892
02:00+1зсз2387100 0.4 102047
05:000з229399 0.1 102141
08:00+6з2564100 0.1 1019532
11:00+10зсз4648100 0.4 10171703
14:00+10з6747100 1.0 10151933
17:00+5з5888100 0.4 1017882
20:00+4зюз2697100 0.7 1016923